x

Neah Bay, - 6nm North Of Cape Flattery, Wa (traffic Separation Lighted Buoy) (46087) Wave Buoy

7:50 - Sun 28th May 2017 All times are PDT. -7 hours from GMT.

  • Sig Wave height 2.3ft
  • Swell Direction
  • Peak Period 10s
  • Average Period 5s
  • Wind
    11mph, 11mph gusts
  • Sea Temp 51°f
  • Luft Temp 52°f
  • Sea Pressure 1018.5mb
  • Neah Bay, - 6nm North Of Cape Flattery, Wa     (traffic Separation Lighted Buoy)
  • Neah Bay, - 6nm North Of Cape Flattery, Wa     (traffic Separation Lighted Buoy)

More Historic Weather Station data

Upgrade to MSW Pro to gain access to the past 30 days of data for over 8000 Wavebouys and Weather Stations around the globe.

Join Pro

Comparision Forecast

View Surf forecast
   
So 05/28 7:50 2.5ft 10s 5s 11 11 mph 1018.5mb 51f 52f
7:20 2.5ft 9s 5s 9 11 mph 1018.4mb 51f 52f
6:50 2.5ft 11s 5s 9 9 mph 1018.4mb 51f 52f
6:20 2.5ft 10s 5s 9 11 mph 1018.6mb 51f 52f
5:50 2.5ft 10s 5s 11 13 mph 1018.7mb 51f 52f
5:20 2.5ft 9s 5s 11 13 mph 1019.1mb 51f 52f
4:50 2.5ft 10s 6s 11 13 mph 1019.3mb 51f 52f
4:20 2.5ft 10s 5s 13 16 mph 1019.5mb 51f 51f
3:50 2.5ft 10s 6s 13 16 mph 1019.6mb 51f 51f
3:20 3.5ft 9s 6s 11 16 mph 1019.9mb 51f 51f
2:50 3.5ft 8s 6s 13 13 mph 1019.8mb 51f 50f
2:20 3.5ft 9s 6s 11 11 mph 1020mb 51f 50f
1:50 3.5ft 9s 6s 9 13 mph 1020.1mb 51f 50f
1:20 3ft 8s 7s 9 13 mph 1020.3mb 51f 50f
12:50 3.5ft 10s 7s 9 11 mph 1020.5mb 51f 50f
12:20 3.5ft 10s 8s 9 13 mph 1020.7mb 51f 50f
11:50 3ft 10s 7s 9 11 mph 1020.7mb 51f 50f
11:20 3ft 10s 8s 9 11 mph 1020.8mb 51f 49f
10:50 3ft 10s 8s 9 11 mph 1020.9mb 51f 49f
10:20 2.5ft 10s 8s 9 11 mph 1021.1mb 51f 49f
9:50 2.5ft 10s 8s 9 11 mph 1021.1mb 51f 49f
9:20 3ft 11s 8s 9 11 mph 1021mb 51f 49f
8:50 2.5ft 9s 7s 9 13 mph 1020.8mb 51f 49f
8:20 3ft 11s 7s 9 11 mph 1020.8mb 51f 49f
7:50 3ft 11s 7s 9 11 mph 1020.6mb 51f 49f
7:20 3ft 11s 7s 9 11 mph 1020.4mb 51f 49f
6:50 2.5ft 9s 6s 7 9 mph 1020.2mb 51f 49f
5:50 2.5ft 10s 6s 7 9 mph 1019.8mb 51f 49f
5:20 3ft 9s 6s 9 13 mph 1019.6mb 51f 50f
4:50 3ft 10s 6s 9 11 mph 1019.3mb 51f 49f
4:20 3ft 11s 7s 9 11 mph 1019.2mb 51f 49f
3:50 3.5ft 11s 6s 9 9 mph 1019.2mb 52f 50f
3:20 3.5ft 11s 6s 11 13 mph 1019.3mb 52f 50f
2:50 3.5ft 11s 7s 11 13 mph 1018.9mb 52f 50f
2:20 3.5ft 10s 7s 9 11 mph 1018.7mb 52f 50f
1:50 3.5ft 11s 7s 9 13 mph 1018.5mb 51f 50f
1:20 3.5ft 11s 7s 7 11 mph 1018.5mb 52f 50f
12:50 3.5ft 9s 7s 9 11 mph 1018.5mb 52f 49f
12:20 4ft 11s 7s 7 9 mph 1018.3mb 52f 49f
Sa 05/27 11:50 4ft 10s 7s 7 7 mph 1018.4mb 52f 49f
11:20 3.5ft 11s 7s 4 7 mph 1018.4mb 53f 50f
10:50 3.5ft 8s 7s 4 7 mph 1018.6mb 53f 50f
10:20 3.5ft 11s 8s 7 9 mph 1018.7mb 53f 50f
9:50 3.5ft 11s 7s 9 9 mph 1018.7mb 53f 50f
9:20 3.5ft 11s 7s 7 9 mph 1018.6mb 53f 50f
8:50 3ft 10s 7s 9 11 mph 1018.7mb 53f 50f
8:20 3.5ft 10s 7s 11 13 mph 1018.6mb 53f 50f
7:50 3ft 11s 7s 9 11 mph 1018.6mb 53f 50f
7:20 3ft 11s 7s 9 11 mph 1018.7mb 53f 50f
6:50 3.5ft 11s 7s 7 9 mph 1018.7mb 53f 51f
6:20 3.5ft 11s 7s 9 9 mph 1018.8mb 53f 51f
5:50 3ft 11s 7s 9 11 mph 1018.9mb 53f 51f
5:20 3.5ft 10s 6s 9 11 mph 1018.8mb 53f 51f
4:50 3.5ft 10s 6s 9 11 mph 1019mb 53f 51f
4:20 3.5ft 11s 7s 9 9 mph 1019.2mb 53f 51f
3:50 3.5ft 11s 6s 9 9 mph 1019.3mb 53f 50f
3:20 3.5ft 11s 6s 7 9 mph 1019.4mb 53f 51f
2:50 4ft 11s 6s 7 9 mph 1019.4mb 53f 50f
2:20 4.5ft 7s 6s 7 9 mph 1019.6mb 53f 50f
1:50 4.5ft 9s 7s 7 9 mph 1019.7mb 53f 50f
1:20 5ft 8s 7s 4 7 mph 1019.8mb 53f 49f
12:50 5ft 10s 7s 7 9 mph 1019.8mb 53f 49f
12:20 5ft 7s 7s 4 7 mph 1019.7mb 53f 49f
11:50 5ft 9s 7s 4 7 mph 1019.6mb 52f 49f
11:20 5ft 9s 7s 4 4 mph 1019.6mb 52f 49f
10:50 5ft 9s 7s 2 4 mph 1019.4mb 52f 49f
10:20 5ft 10s 8s 2 4 mph 1019.4mb 52f 49f
9:50 4.5ft 9s 8s 2 4 mph 1019.5mb 52f 49f
9:20 5ft 11s 8s 4 4 mph 1019.4mb 52f 49f
8:50 4.5ft 8s 7s  -  2 mph 1019.4mb 52f 49f
8:20 4.5ft 8s 8s  -  4 mph 1019.1mb 52f 49f
7:50 4.5ft 8s 7s 2 4 mph 1018.8mb 52f 50f
7:20 4.5ft 10s 7s 4 7 mph 1018.4mb 52f 50f
6:50 4ft 10s 7s 2 2 mph 1018.1mb 52f 50f
6:20 4ft 9s 7s  -  2 mph 1018mb 52f 50f
5:50 4ft 9s 7s 4 7 mph 1017.6mb 52f 50f
5:20 4ft 10s 7s 4 7 mph 1017.3mb 52f 51f
4:50 3.5ft 9s 7s 7 7 mph 1017.2mb 52f 51f
4:20 4ft 10s 7s 4 4 mph 1017mb 52f 51f
3:50 4.5ft 9s 7s 4 7 mph 1017.1mb 52f 51f
3:20 4.5ft 10s 7s 4 4 mph 1017.1mb 52f 51f
2:50 4.5ft 9s 7s 4 4 mph 1017.1mb 52f 51f
2:20 4.5ft 9s 7s 4 7 mph 1017mb 52f 52f
1:50 4.5ft 9s 7s 7 9 mph 1016.8mb 52f 52f
1:20 4.5ft 9s 6s 7 7 mph 1016.8mb 52f 52f
12:50 4.5ft 9s 7s 7 9 mph 1016.8mb 52f 52f
12:20 4.5ft 9s 7s 9 9 mph 1016.7mb 52f 52f
Fr 05/26 11:50 4.5ft 9s 7s 9 9 mph 1016.6mb 52f 52f
11:20 4.5ft 11s 7s 7 9 mph 1016.6mb 52f 52f
10:50 4.5ft 10s 7s 9 11 mph 1016.6mb 53f 53f
10:20 4.5ft 10s 7s 9 11 mph 1016.4mb 53f 53f
9:50 4.5ft 9s 7s 11 13 mph 1016.2mb 53f 54f
9:20 4.5ft 10s 7s 9 13 mph 1016mb 53f 54f
8:50 5.5ft 9s 8s 11 11 mph 1015.8mb 54f 54f
8:20 4.5ft 10s 7s 11 13 mph 1015.6mb 54f 54f
7:50 4.5ft 10s 7s 7 9 mph 1015.7mb 54f 55f
7:20 4.5ft 10s 7s 9 9 mph 1015.7mb 54f 55f
6:50 4.5ft 9s 7s 9 9 mph 1015.7mb 54f 55f
6:20 4.5ft 9s 7s 9 9 mph 1015.8mb 54f 55f
5:50 4.5ft 9s 7s 9 9 mph 1015.8mb 54f 55f
5:20 4.5ft 9s 7s 7 9 mph 1015.8mb 54f 54f
4:50 4ft 9s 7s 9 9 mph 1015.7mb 54f 53f
4:20 4.5ft 8s 7s 9 11 mph 1015.6mb 54f 52f
3:50 5ft 9s 7s 9 9 mph 1015.5mb 54f 52f
3:20 4.5ft 9s 6s 7 9 mph 1015.6mb 54f 53f
2:50 5ft 9s 6s 9 9 mph 1015.6mb 54f 52f
2:20 5.5ft 8s 6s 7 9 mph 1015.6mb 54f 52f
1:50 5.5ft 9s 7s 7 9 mph 1015.5mb 54f 52f
1:20 5.5ft 9s 7s 7 9 mph 1015.4mb 54f 52f
12:50 5.5ft 9s 7s 9 11 mph 1015.3mb 54f 53f
12:20 5ft 9s 7s 4 7 mph 1015.2mb 54f 54f
11:50 5ft 9s 7s 2 4 mph 1015.1mb 54f 55f
11:20 5ft 9s 7s 2 4 mph 1015.1mb 53f 54f
10:20 4.5ft 9s 7s 4 7 mph 1015.1mb 53f 53f
9:50 5ft 10s 8s 4 7 mph 1015.1mb 52f 52f
9:20 5ft 10s 8s 9 11 mph 1014.8mb 52f 52f
8:50 5.5ft 10s 8s 7 7 mph 1014.7mb 52f 52f
8:20 4.5ft 9s 8s 7 9 mph 1014.6mb 52f 52f
7:50 4.5ft 10s 8s 4 7 mph 1014.4mb 51f 52f
7:20 4ft 10s 8s 4 4 mph 1014.2mb 51f 52f
6:50 4ft 10s 8s 2 4 mph 1013.9mb 51f 53f
6:20 4.5ft 10s 8s 4 4 mph 1013.7mb 51f 52f
5:50 3.5ft 11s 7s 4 7 mph 1013.4mb 51f 51f
5:20 4.5ft 10s 7s 7 9 mph 1013.4mb 51f 52f
4:50 4.5ft 10s 7s 11 13 mph 1013.3mb 51f 52f
4:20 4.5ft 10s 7s 9 13 mph 1013.1mb 51f 52f
3:50 4.5ft 10s 7s 9 11 mph 1013.1mb 51f 52f
3:20 4.5ft 10s 7s 9 9 mph 1012.8mb 51f 51f
2:50 5ft 10s 7s 9 11 mph 1012.7mb 52f 52f
2:20 4.5ft 9s 6s 9 9 mph 1012.6mb 52f 52f
1:50 5.5ft 10s 7s 9 11 mph 1012.4mb 52f 52f
1:20 5.5ft 10s 7s 9 11 mph 1012.3mb 52f 52f
12:50 5.5ft 10s 7s 9 11 mph 1012.1mb 52f 52f
12:20 6ft 10s 7s 9 9 mph 1012.1mb 52f 52f
Do 05/25 11:50 5.5ft 9s 7s 9 9 mph 1012.1mb 52f 52f
11:20 6ft 10s 7s 7 7 mph 1011.9mb 52f 53f
10:50 6ft 10s 7s 7 7 mph 1011.9mb 52f 53f
10:20 6ft 10s 7s 7 9 mph 1011.8mb 52f 53f
9:50 6ft 10s 7s 9 9 mph 1011.6mb 52f 53f
9:20 7.5ft 10s 8s 9 11 mph 1011.4mb 53f 53f
8:50 6ft 10s 8s 9 11 mph 1011.3mb 53f 53f
8:20 7ft 10s 8s 7 9 mph 1011.4mb 53f 53f
7:50 6ft 10s 8s 9 11 mph 1011.4mb 53f 53f
7:20 5ft 10s 7s 7 11 mph 1011.6mb 53f 53f
6:50 6ft 10s 8s 11 13 mph 1011.6mb 53f 53f
6:20 6ft 10s 7s 9 11 mph 1011.7mb 53f 53f
5:50 6ft 10s 8s 9 11 mph 1011.9mb 53f 53f
5:20 6ft 10s 8s 7 9 mph 1012mb 53f 53f
4:50 6ft 10s 8s 9 11 mph 1012.2mb 53f 53f
4:20 5ft 10s 7s 11 11 mph 1012.3mb 53f 53f
3:50 5.5ft 10s 8s 9 11 mph 1012.5mb 53f 53f
3:20 5.5ft 10s 7s 9 11 mph 1012.6mb 53f 52f
2:50 5.5ft 10s 7s 7 9 mph 1012.7mb 53f 52f
2:20 6ft 10s 7s 7 9 mph 1012.7mb 53f 52f
1:50 6.5ft 10s 7s 7 9 mph 1012.8mb 53f 51f
1:20 7ft 10s 7s 7 7 mph 1012.9mb 53f 51f
12:50 6.5ft 9s 7s 7 7 mph 1012.9mb 53f 51f
12:20 7.5ft 10s 7s 7 9 mph 1012.9mb 52f 51f
11:50 7ft 10s 7s 7 7 mph 1013mb 52f 50f
11:20 8ft 11s 8s 4 4 mph 1013mb 52f 51f
10:50 9ft 10s 8s 2 4 mph 1012.9mb 52f 51f
10:20 8.5ft 10s 8s 4 9 mph 1012.8mb 52f 51f
9:50 8.5ft 10s 8s 7 9 mph 1012.9mb 51f 51f
9:20 7ft 10s 8s 9 11 mph 1012.9mb 51f 51f
8:50 7ft 11s 8s 9 11 mph 1013.1mb 51f 50f
8:20 7.5ft 11s 8s 9 13 mph 1013mb 51f 50f
7:50 7.5ft 11s 9s 7 9 mph 1013mb 51f 51f
7:20 7ft 11s 8s 7 9 mph 1012.9mb 51f 50f
6:50 7.5ft 11s 8s 4 7 mph 1012.8mb 51f 51f
6:20 8ft 11s 9s 2 4 mph 1012.6mb 51f 50f
5:50 8ft 11s 8s 2 4 mph 1012.7mb 51f 49f
5:20 7.5ft 11s 8s 2 7 mph 1012.7mb 51f 49f
4:50 8ft 11s 8s 4 4 mph 1012.8mb 51f 49f
4:20 8ft 11s 8s 4 7 mph 1012.9mb 51f 49f